Location: Angwan Shehu
(11.2514°N, 7.4613°E)
Time: 11:07:57
(UTC+00:00)

Hubble Space Telescope - Pass Details

Date: 14 November 2019
Orbit: 536 x 540 km, 28.5° (Epoch: 15 December)

Event Time Altitude Azimuth Distance (km) Brightness Sun altitude
Rises 18:53:15 0° 265° (W) 2,669 5.6 -26.7°
Reaches altitude 10° 18:55:45 10° 277° (W) 1,779 4.3 -27.3°
Enters shadow 18:58:12 24° 309° (NW) 1,115 2.7 -27.9°
